"Pseudo-MPEC" for P21Oesz

Created 2023 Nov 21 7:22:09 UT using Find_Orb

Click here for an explanation of pseudo-MPECs

 
 Astrometry: 
     P21Oesz* C2023 11 17x/D/kxcS1GOAJ.S3+pfGaP:Astrometry6H)]SFDFD.DSSBq,.\)F52
     P21Oesz  C2023 11 17CD6VO,vPGj^Ntu'@s'[LK5nBuV;W_^Uu:*\6[)p%ADyp%sj,7%X=F52
     P21Oesz  C2023 11 17:'_6]Gw8#LRa.BBl8Hg6!^;O(H@-]-w8Ew9v6pHBredacted;X1?F52
     P21Oesz  C2023 11 17TW1clickVDHX\cae'lehere(SbtR93N)*QbEp?VM=$_BF-MxSla.F52
     P21Oesz KC2023 11 18T9HhB+Ls1h[V8TgeqEJKgJDOxB(DIiS#for]!EY`KRrmg(,AoKl;H21
     P21Oesz KC2023 11 18P\b1R*nw-]Pet+dSk6_c]LFim;o`0E$my@$,$r)203Q^r;lc+Q'iH21
     P21Oesz KC2023 11 18$M2qB'1SiFZc$fhQIa\Qy.FkqRCRAGYSr5^/;'/Ok3;Ydd3%YbdJH21
     P21Oesz KB2023 11 18.35546 06 43 47.80 +39 07 11.0    ~BIA7 20.9 GXNEOCPH36
     P21Oesz KB2023 11 18.37780 06 43 50.59 +39 07 01.3    ~BIA7 21.3 GXNEOCPH36
     P21Oesz KB2023 11 18.39961 06 43 53.28 +39 06 51.1    ~BIA7 21.2 GXNEOCPH36
     P21Oesz  C2023 11 184Gf]HkAYeA`tq+-fdL+Q+_odHZ5\v64_%ZX+9CS=Q9KrWQ#/\$!dF52
     P21Oesz  C2023 11 188ji##e%\E^A8'!FySexplanation_$%U(Kkx*Fcv6=e=@B\$\8ytF52
     P21Oesz KC2023 11 19s!@r.YP3v+o!Qm_wV\hN!+HDAH#:VRhWL:e,kR\PG7':wYK3Gyh,H21
     P21Oesz KC2023 11 19G2MJi+E],V/Gu;8MwhtiJ4f)_S*^A6`.=0QHNv+5,;\'0NTbpNQ@H21
     P21Oesz 1C2023 11 21.18150 06 49 55.97 +38 43 52.8    ~BL7M 21.8 VXNEOCP033
     P21Oesz 1C2023 11 21.18399 06 49 56.27 +38 43 51.4    ~BL7M 21.5 VXNEOCP033

Station data:
(033) Karl Schwarzschild Observatory, Tautenburg  (N50.980137 E11.711240)
   Germany.  Observer B. Stecklum. 1.34-m f/3 Schmidt + CCD.
(F52) Pan-STARRS 2, Haleakala  (N20.707382 W156.255910)  US/Hawaii.
   Observers J. Bulger, T. Dukes, T. Lowe, A. Schultz, M. Willman. Measurers
   K. Chambers, S. Chastel, T. de Boer, L. Denneau, J. Fairlamb, H.
   Flewelling, M. Huber, C.-C. Lin, E. Magnier, Y. Ramanjooloo, R. Wainscoat,
   R. Weryk. 1.8-m Ritchey-Chrétien + CCD.
(H21) Astronomical Research Observatory, Westfield  (N39.483054 W87.968270)
   US/Illinois.  Observer R. Holmes. Measurers S. Foglia, L. Buzzi, T.
   Linder, R. Holmes. 0.76-m f/3.0 astrograph + CCD0.81-m f/4.0 astrograph +
   CCD0.61-m f/4.5 astrograph + CCD0.40-m f/5.32 astrograph + CCD.
(H36) Sandlot Observatory, Scranton  (N38.797690 W95.706400)  US/Kansas.
   Observer G. Hug. 0.56-m reflector + CCD.

Orbital elements:  P21Oesz
   Perihelion 2024 Jan 6.84369 +/- 0.582 TT = 20:14:54 (JD 2460316.34369)
Epoch 2023 Nov 21.0 TT = JDT 2460269.5   Earth MOID: 0.2095      AutoNEOCP
M 338.92147926 +/- 0.53             (J2000 ecliptic)
n   0.44997566 +/- 0.00618          Peri.  184.08008 +/- 0.6
a   1.68659198 +/- 0.0154           Node   282.80134 +/- 0.18
e   0.2928594 +/- 0.00446           Incl.    7.43170 +/- 0.037
P   2.19/800.03d           H 21.86  G  0.15   U  9.3
q 1.19265760 +/- 0.00343    Q 2.18052637 +/- 0.0275
From 16 observations 2023 Nov. 17-21; mean residual 0".29
Residuals in arcseconds: 
231117 F52  .03+  .28-    231118 H21  .65-  .41+    231119 H21  .49+  .29+    
231117 F52  .06-  .08+    231118 H36  .20+  .16+    231119 H21  .07+  .01-    
231117 F52  .01+  .01-    231118 H36  .61+  .08+    231121 033  .06-  .13-    
231117 F52  .04+  .07+    231118 H36  .66+  .48-    231121 033  .06-  .09-    
231118 H21  .49-  .51+    231118 F52  .07-  .01+    
231118 H21  .27-  .12+    231118 F52  .07-  .01-    

Ephemerides (geocentric):
Date (UTC) HH   RA             Dec           delta  r     elong  mag " sig PA
---- --------  ------------   ------------  ------ ------ -----  --- --------
2023 11 21 07  06 50 10.799   +38 42 59.84  .34055 1.2551 135.9 21.4 .107 152
2023 11 21 08  06 50 16.104   +38 42 36.93  .34034 1.2549 135.9 21.4 .119 152
2023 11 21 09  06 50 21.406   +38 42 13.96  .34013 1.2548 135.9 21.4 .131 152
2023 11 21 10  06 50 26.703   +38 41 50.91  .33993 1.2547 136.0 21.4 .143 152
2023 11 21 11  06 50 31.997   +38 41 27.81  .33972 1.2546 136.0 21.4 .156 151
2023 11 21 12  06 50 37.287   +38 41 04.63  .33952 1.2545 136.0 21.4 .169 151
2023 11 21 13  06 50 42.573   +38 40 41.39  .33931 1.2544 136.0 21.4 .183 151
2023 11 21 14  06 50 47.855   +38 40 18.09  .33911 1.2543 136.0 21.4 .197 152
2023 11 21 15  06 50 53.133   +38 39 54.71  .33890 1.2542 136.1 21.4 .211 152
2023 11 21 16  06 50 58.407   +38 39 31.27  .33869 1.2541 136.1 21.4 .225 152
2023 11 21 17  06 51 03.677   +38 39 07.77  .33849 1.2540 136.1 21.4 .239 152
2023 11 21 18  06 51 08.943   +38 38 44.19  .33829 1.2539 136.1 21.4 .254 152
2023 11 21 19  06 51 14.205   +38 38 20.55  .33808 1.2538 136.2 21.4 .270 152
2023 11 21 20  06 51 19.464   +38 37 56.85  .33788 1.2537 136.2 21.4 .285 152
2023 11 21 21  06 51 24.718   +38 37 33.07  .33767 1.2536 136.2 21.4 .301 152
2023 11 21 22  06 51 29.969   +38 37 09.23  .33747 1.2535 136.2 21.4 .317 152
2023 11 21 23  06 51 35.215   +38 36 45.33  .33726 1.2534 136.3 21.4 .334 152
2023 11 22 00  06 51 40.458   +38 36 21.35  .33706 1.2533 136.3 21.4 .350 152
2023 11 22 01  06 51 45.696   +38 35 57.31  .33686 1.2532 136.3 21.4 .367 152
2023 11 22 02  06 51 50.931   +38 35 33.20  .33665 1.2531 136.3 21.4 .385 152
2023 11 22 03  06 51 56.161   +38 35 09.03  .33645 1.2530 136.3 21.4 .402 152
2023 11 22 04  06 52 01.388   +38 34 44.79  .33625 1.2529 136.4 21.4 .420 152
2023 11 22 05  06 52 06.610   +38 34 20.48  .33604 1.2527 136.4 21.4 .439 152
2023 11 22 06  06 52 11.829   +38 33 56.10  .33584 1.2526 136.4 21.4 .457 152
2023 11 22 07  06 52 17.043   +38 33 31.66  .33564 1.2525 136.4 21.4 .476 152
2023 11 22 08  06 52 22.254   +38 33 07.15  .33543 1.2524 136.5 21.4 .495 152
2023 11 22 09  06 52 27.460   +38 32 42.57  .33523 1.2523 136.5 21.4 .515 152
2023 11 22 10  06 52 32.663   +38 32 17.92  .33503 1.2522 136.5 21.4 .535 152
2023 11 22 11  06 52 37.861   +38 31 53.21  .33483 1.2521 136.5 21.4 .555 152
2023 11 22 12  06 52 43.056   +38 31 28.43  .33462 1.2520 136.6 21.3 .576 152
2023 11 22 13  06 52 48.246   +38 31 03.58  .33442 1.2519 136.6 21.3 .596 152
2023 11 22 14  06 52 53.432   +38 30 38.66  .33422 1.2518 136.6 21.3 .618 152
2023 11 22 15  06 52 58.614   +38 30 13.68  .33402 1.2517 136.6 21.3 .639 152
2023 11 22 16  06 53 03.793   +38 29 48.63  .33382 1.2516 136.7 21.3 .661 152
2023 11 22 17  06 53 08.967   +38 29 23.51  .33361 1.2515 136.7 21.3 .683 152
2023 11 22 18  06 53 14.137   +38 28 58.32  .33341 1.2514 136.7 21.3 .706 152
2023 11 22 19  06 53 19.303   +38 28 33.06  .33321 1.2513 136.7 21.3 .728 152
2023 11 22 20  06 53 24.465   +38 28 07.74  .33301 1.2512 136.7 21.3 .752 153
2023 11 22 21  06 53 29.622   +38 27 42.35  .33281 1.2511 136.8 21.3 .775 153
2023 11 22 22  06 53 34.776   +38 27 16.89  .33261 1.2510 136.8 21.3 .799 153
2023 11 22 23  06 53 39.926   +38 26 51.36  .33241 1.2509 136.8 21.3 .823 153
2023 11 23 00  06 53 45.071   +38 26 25.77  .33221 1.2508 136.8 21.3 .847 153
2023 11 23 01  06 53 50.213   +38 26 00.10  .33201 1.2507 136.9 21.3 .872 153
2023 11 23 02  06 53 55.350   +38 25 34.37  .33181 1.2506 136.9 21.3 .897 153
2023 11 23 03  06 54 00.483   +38 25 08.57  .33161 1.2505 136.9 21.3 .923 153
2023 11 23 04  06 54 05.612   +38 24 42.70  .33141 1.2504 136.9 21.3 .949 153
2023 11 23 05  06 54 10.737   +38 24 16.77  .33121 1.2503 137.0 21.3 .975 153
2023 11 23 06  06 54 15.858   +38 23 50.76  .33101 1.2502 137.0 21.3 1.00 153